Humidity-temperature Sensor

Selected Measurement Type: Air Temperature

 
Air Temperature [°C]     6 entries per hour
Showing data from 8/30/2018 (00:00:00 Z) to 8/29/2018 (00:01:00 Z)
Previous Next [ Day | 3-Days | 7-Days ]
First Last
Prev [ Day | 3-Days | 7-Days ] Next
First Last

Start Time:     :
End Time:     :     
Time (in GMT) :00 :50 :40 :30 :20 :10
Previous Next [ Day | 3-Days | 7-Days ]
First Last
Prev [ Day | 3-Days | 7-Days ] Next
First Last


123 => good data
MM => data is determined as missing
-- => data not received/configured
Back to Top Back to Top
8/30/2018 00:00 to 23:10 22.41 22.28 22.43 22.58 22.45 22.53
8/29/2018 23:00 to 22:10 22.50 22.08 22.09 22.70 22.59 22.70
8/29/2018 22:00 to 21:10 22.53 22.78 22.54 22.24 21.73 21.59
8/29/2018 21:00 to 20:10 21.69 22.50 22.17 22.03 21.77 21.45
8/29/2018 20:00 to 19:10 21.89 22.04 21.81 21.73 21.52 21.89
8/29/2018 19:00 to 18:10 22.10 22.77 22.49 22.56 22.51 22.96
8/29/2018 18:00 to 17:10 22.92 22.62 22.50 22.24 22.03 22.47
8/29/2018 17:00 to 16:10 22.41 22.32 22.51 22.58 22.71 22.31
8/29/2018 16:00 to 15:10 21.93 22.14 21.99 22.23 22.01 21.74
8/29/2018 15:00 to 14:10 21.94 21.64 21.21 21.45 21.86 21.99
8/29/2018 14:00 to 13:10 22.10 21.89 21.78 21.75 21.62 21.60
8/29/2018 13:00 to 12:10 21.60 21.53 22.38 22.40 22.62 22.12
8/29/2018 12:00 to 11:10 21.51 21.68 21.52 21.99 22.10 22.33
8/29/2018 11:00 to 10:10 22.41 22.36 22.37 22.32 22.40 22.29
8/29/2018 10:00 to 9:10 22.18 22.16 21.79 21.49 21.46 21.65
8/29/2018 09:00 to 8:10 21.78 22.06 22.26 22.02 22.04 22.16
8/29/2018 08:00 to 7:10 22.19 22.33 22.59 22.53 22.44 22.37
8/29/2018 07:00 to 6:10 22.17 22.35 22.17 22.10 21.45 21.49
8/29/2018 06:00 to 5:10 22.24 22.36 22.32 22.26 22.42 22.25
8/29/2018 05:00 to 4:10 21.73 21.95 22.41 22.40 21.83 22.24
8/29/2018 04:00 to 3:10 22.04 21.90 22.02 22.36 22.45 22.63
8/29/2018 03:00 to 2:10 22.80 22.69 22.57 22.70 22.79 22.77
8/29/2018 02:00 to 1:10 22.85 22.69 22.63 22.44 22.54 22.53
8/29/2018 01:00 to 0:10 22.52 22.28 22.67 22.70 22.84 22.81